Flag for Switzerland Weather past 2 weeks in Kriens, Lucerne, Switzerland

Now
61 °F

Cool.


Feels Like: 61 °F
Forecast: 43 / 71 °F
Wind: 2 mph from Northeast

Location: Giswil

Current Time: Sep 2, 2014 at 1:54:07 PM

Latest Report: Sep 2, 2014 at 1:00 PM


Visibility: N/A

Pressure: 30.12 "Hg

Humidity: 66%

Dew point: 49 °F

Location of KriensLocation

Historic Weather in Kriens — Graph

°F

Kriens temperature yesterday

Maximum temperature yesterday: 61 °F (at 5:00 PM)
Minimum temperature yesterday: 49 °F (at 11:00 PM)
Average temperature yesterday: 56 °F

Past Weeks' High & Low Weather Summary

 TemperatureHumidityPressure
High75 °F (Aug 28, 4:00 PM)100% (Aug 30, 1:00 AM)30.24 "Hg (Aug 30, 1:00 AM)
Low43 °F (Sep 2, 7:00 AM)48% (Aug 22, 3:00 PM)29.78 "Hg (Aug 26, 6:00 AM)
Average60 °F85%30.04 "Hg
* Reported Aug 18 12:00 Noon — Sep 2 12:00 Noon, Kriens, Weather by CustomWeather, © 2014

Note: Actual official high and low records may vary slightly from our data, if they occured in-between our weather recording intervals... More about our weather records

Advertising

Kriens weather history for previous 24 hours

 ConditionsComfort  
Time TempWeatherWind HumidityBarometerVisibility
12:00 PM
Sep 2
60 °FCool.2 mph68%30.14 "HgN/A
11:00 AM56 °FCool.2 mph71%30.16 "HgN/A
10:00 AM54 °FCool.1 mph84%30.16 "HgN/A
9:00 AM49 °FCool.1 mph99%30.19 "HgN/A
8:00 AM44 °FQuite cool.1 mph99%30.21 "HgN/A
7:00 AM43 °FQuite cool.2 mph99%30.21 "HgN/A
6:00 AM44 °FQuite cool.1 mph99%30.19 "HgN/A
5:00 AM43 °FQuite cool.2 mph99%30.21 "HgN/A
4:00 AM45 °FQuite cool.1 mph99%30.19 "HgN/A
3:00 AM47 °FCool.1 mph98%30.19 "HgN/A
2:00 AM46 °FCool.1 mph98%30.20 "HgN/A
1:00 AM47 °FCool.1 mph98%30.21 "HgN/A
12:00 AM47 °FCool.2 mph97%30.21 "HgN/A
11:00 PM
Sep 1
49 °FCool.2 mph96%30.21 "HgN/A
10:00 PM51 °FCool.2 mph97%30.21 "HgN/A
9:00 PM53 °FCool.3 mph94%30.19 "HgN/A
8:00 PM56 °FCool.1 mph92%30.17 "HgN/A
7:00 PM60 °FCool.1 mph78%30.16 "HgN/A
6:00 PM61 °FCool.1 mph65%30.15 "HgN/A
5:00 PM61 °FCool.1 mph61%30.15 "HgN/A
4:00 PM61 °FCool.1 mph69%30.15 "HgN/A
3:00 PM61 °FCool.1 mph64%30.15 "HgN/A
2:00 PM60 °FCool.1 mph68%30.15 "HgN/A
1:00 PM61 °FCool.2 mph67%30.14 "HgN/A
Weather by CustomWeather, © 2014

See weather overviewHow to use our weather pages